[[{"header":{"parameterUnit":"m.s-1","parameterCategory":2,"la1":30.2991,"la2":30.254,"lo1":-89.0895,"lo2":-89.0444,"dy":0.0017,"dx":0.0017,"nx":28,"ny":28,"refTime":"2024-05-20T09:00:00:Z","depth":"0","parameterNumber":2,"parameterNumberName":"U-component_of_CURRENTS"},"data":[0,0,0,0,0,0,0,0,0,0,0,0,0,0,0,0,0,0,0,0,0,0,0,0,0,0,0,0,0,0,0,0,0,0,0,0,0,0,0,0,0,0,0,0,0,0,0,0,0,0,0,0,0,0,0,0,0,0,0.1472,0.1472,0,0.1446,0.1446,0.1445,0.1387,0.1386,0.1385,0.1384,0.1399,0.14,0.1402,0,0,0,0,0,0,0,0,0,0,0,0,0,0.1448,0.1449,0.1472,0.1472,0.1472,0.1446,0.1446,0.1445,0.1387,0.1386,0.1385,0.1384,0.1399,0.14,0.1402,0,0,0,0,0,0,0,0,0,0,0,0,0,0.1442,0.1449,0.1472,0.1441,0.1438,0.1446,0.1446,0.1445,0.1388,0.1386,0.1385,0.1383,0.1398,0.14,0.1402,0.1446,0,0,0.1408,0.1409,0,0,0,0,0,0,0,0,0.1443,0.1443,0.1446,0.1444,0.144,0.142,0.1443,0.1448,0.1388,0.1405,0.1384,0.1382,0.1412,0.1413,0.1408,0.1447,0.1447,0.1409,0.141,0.1411,0.1411,0,0,0,0,0,0,0,0.1443,0.1444,0.146,0.1446,0.1443,0.142,0.1418,0.1443,0.1417,0.1404,0.14,0.14,0.141,0.1407,0.1409,0.1447,0.1409,0.141,0.1412,0.1412,0.1531,0.1533,0,0,0,0,0,0,0.1453,0.1445,0.1461,0.146,0.144,0.1422,0.1419,0.1427,0.1416,0.1413,0.1401,0.1397,0.1404,0.1406,0.1409,0.1468,0.1411,0.1413,0.1414,0.1529,0.1532,0.1534,0,0,0,0,0,0,0.1453,0.1455,0.1462,0.1452,0.1452,0.1425,0.1433,0.1427,0.1417,0.1414,0.1411,0.1397,0.1403,0.1406,0.1442,0.1467,0.1414,0.1415,0.1527,0.153,0.1533,0.1581,0,0,0,0,0,0,0.1452,0.1456,0.147,0.1453,0.1453,0.1475,0.1434,0.1428,0.1421,0.1415,0.1411,0.141,0.1402,0.1439,0.1444,0.1469,0.1417,0.1525,0.1528,0.1532,0.1577,0.1585,0.1592,0,0,0,0,0,0.1452,0.1472,0.1471,0.1473,0.1472,0.1476,0.1474,0.1448,0.1423,0.143,0.143,0.141,0.1465,0.1443,0.1448,0.1474,0.1523,0.1527,0.1532,0.1573,0.1583,0.1592,0,0,0,0,0,0,0.147,0.1468,0.1466,0.1486,0.1487,0.1467,0.147,0.1454,0.1458,0.1453,0.1439,0.1441,0.1483,0.1479,0.1455,0.1521,0.149,0.1495,0.152,0.1529,0.1537,0.1563,0.1419,0,0,0,0,0,0.1485,0.1498,0.1495,0.1513,0.1513,0.1494,0.1493,0.148,0.1478,0.1475,0.1476,0.1484,0.1508,0.1517,0.1539,0.1578,0.1624,0.1599,0.1606,0.1612,0.164,0.1755,0.1776,0.1548,0.1548,0.1548,0,0,0.1497,0.1499,0.1506,0.1518,0.1511,0.1528,0.1489,0.1493,0.1508,0.1482,0.1508,0.1517,0.1528,0.157,0.1587,0.1566,0.1698,0.1618,0.1623,0.1648,0.1762,0.1784,0.1804,0.1551,0.1551,0.155,0,0,0.1527,0.153,0.155,0.1557,0.1561,0.1555,0.1559,0.1552,0.1546,0.1578,0.1567,0.1599,0.162,0.1641,0.1651,0.172,0.174,0.1716,0.177,0.1881,0.1901,0.192,0.1991,0.2015,0.1713,0.1713,0.1713,0,0.1541,0.1568,0.1558,0.1581,0.1589,0.157,0.1594,0.1597,0.1605,0.1628,0.1594,0.167,0.166,0.1735,0.1743,0.1738,0.1797,0.1728,0.1893,0.1912,0.193,0.1999,0.2025,0.1716,0.1715,0.1715,0.1715,0,0.1584,0.1609,0.1619,0.1643,0.1656,0.1672,0.1676,0.1697,0.1687,0.1702,0.177,0.1773,0.1826,0.1814,0.179,0.191,0.1908,0.1895,0.187,0.1956,0.2022,0.2049,0.172,0.1719,0.1718,0.1717,0,0,0.1599,0.1641,0.1645,0.1666,0.1687,0.1699,0.1741,0.1781,0.182,0.1842,0.1913,0.1937,0.1955,0.197,0.1959,0.2024,0.2168,0.2009,0.2014,0.208,0.2407,0.2348,0.237,0.2194,0.2199,0.2203,0.2396,0,0.1631,0.1687,0.1698,0.1749,0.1773,0.1782,0.182,0.1861,0.189,0.1959,0.1993,0.2052,0.201,0.2034,0.2109,0.2154,0.2244,0.2116,0.2314,0.232,0.2258,0.2402,0.2308,0.2468,0.2421,0.2426,0.2429,0,0.1665,0.1698,0.1753,0.1801,0.1811,0.1839,0.1904,0.1939,0.2034,0.2065,0.2158,0.2189,0.2293,0.2236,0.2416,0.2342,0.2398,0.2424,0.2432,0.2386,0.2312,0.2378,0.2518,0.2429,0.247,0.2467,0.2464,0,0.1671,0.1732,0.1775,0.1791,0.1846,0.1873,0.19,0.1978,0.202,0.2149,0.2207,0.2345,0.2405,0.2525,0.2571,0.2523,0.2762,0.2703,0.2715,0.2709,0.2673,0.2655,0.2754,0.2879,0.2879,0.2878,0.2877,0,0.1694,0.1723,0.1781,0.18,0.1847,0.1885,0.1947,0.1997,0.2097,0.2172,0.2268,0.2357,0.2485,0.2613,0.2663,0.278,0.286,0.2775,0.2783,0.2681,0.2663,0.2616,0.2551,0.2885,0.2884,0.2882,0.2881,0,0.1683,0.1724,0.1767,0.1829,0.1847,0.1877,0.1945,0.1999,0.2093,0.2202,0.225,0.241,0.257,0.2688,0.2868,0.2881,0.2915,0.3015,0.2861,0.2848,0.273,0.2671,0.272,0.264,0.3074,0.3074,0.3074,0,0.1682,0.1709,0.177,0.179,0.181,0.1861,0.1897,0.1986,0.2047,0.222,0.2277,0.2464,0.2576,0.282,0.2911,0.3051,0.294,0.3016,0.2902,0.276,0.2702,0.2576,0.2495,0.2872,0.2871,0.2869,0.2868,0,0.1673,0.1691,0.1723,0.1762,0.1796,0.1834,0.1893,0.1936,0.2051,0.2145,0.2273,0.2376,0.2618,0.2723,0.2903,0.2963,0.2851,0.299,0.2919,0.2633,0.2436,0.2347,0.2674,0.2857,0.2858,0.2859,0.2859,0.286,0.1654,0.1663,0.17,0.1728,0.1757,0.1776,0.1791,0.1868,0.1939,0.2061,0.2204,0.2337,0.2532,0.2766,0.2808,0.2808,0.2779,0.2738,0.2706,0.2613,0.2453,0.2729,0.2859,0.286,0.2861,0.2862,0.2862,0,0.1626,0.1637,0.1664,0.1682,0.1676,0.1714,0.1764,0.1776,0.1821,0.1974,0.2082,0.2284,0.2405,0.2543,0.2634,0.2553,0.2437,0.2479,0.2296,0.2251,0.259,0.2495,0.2458,0.2458,0.2458,0.2458,0.2458,0.2458,0.1615,0.1613,0.1621,0.1593,0.1597,0.1571,0.1578,0.1612,0.1697,0.1809,0.1931,0.2088,0.2287,0.2416,0.239,0.2335,0.2141,0.2056,0.2033,0.227,0.2291,0.2311,0.2208,0.2112,0.2111,0.1615,0.1611,0.1608]},{"header":{"parameterUnit":"m.s-1","parameterCategory":2,"la1":30.2991,"la2":30.254,"lo1":-89.0895,"lo2":-89.0444,"dy":0.0017,"dx":0.0017,"nx":28,"ny":28,"refTime":"2024-05-20T09:00:00:Z","depth":"0","parameterNumber":3,"parameterNumberName":"V-component_of_CURRENTS"},"data":[0,0,0,0,0,0,0,0,0,0,0,0,0,0,0,0,0,0,0,0,0,0,0,0,0,0,0,0,0,0,0,0,0,0,0,0,0,0,0,0,0,0,0,0,0,0,0,0,0,0,0,0,0,0,0,0,0,0,0.0395,0.0395,0,0.0402,0.0402,0.0401,0.0372,0.0371,0.0371,0.037,0.0365,0.0365,0.0366,0,0,0,0,0,0,0,0,0,0,0,0,0,0.0295,0.0297,0.0395,0.0395,0.0396,0.0402,0.0402,0.0401,0.0372,0.0371,0.0371,0.037,0.0365,0.0365,0.0366,0,0,0,0,0,0,0,0,0,0,0,0,0,0.032,0.0298,0.0395,0.0385,0.0385,0.0402,0.0402,0.0401,0.0372,0.0371,0.037,0.037,0.0365,0.0365,0.0366,0.0382,0,0,0.0367,0.0367,0,0,0,0,0,0,0,0,0.0318,0.0323,0.0386,0.0386,0.0386,0.0389,0.0365,0.0396,0.0372,0.0372,0.037,0.0369,0.0376,0.0375,0.0371,0.0382,0.0382,0.0367,0.0367,0.0367,0.0368,0,0,0,0,0,0,0,0.0317,0.0322,0.0393,0.0387,0.0387,0.036,0.0363,0.037,0.0374,0.0372,0.0371,0.0379,0.0374,0.0371,0.0371,0.0381,0.0367,0.0367,0.0368,0.0368,0.0379,0.0379,0,0,0,0,0,0,0.033,0.0321,0.0393,0.0394,0.0355,0.0363,0.0366,0.0385,0.0374,0.0373,0.038,0.0378,0.0371,0.0371,0.0371,0.0385,0.0367,0.0368,0.0368,0.0379,0.0379,0.0379,0,0,0,0,0,0,0.0328,0.0336,0.0393,0.036,0.0366,0.0367,0.0387,0.0386,0.0384,0.0381,0.0378,0.038,0.037,0.037,0.038,0.0384,0.0368,0.0368,0.0379,0.0379,0.0379,0.0416,0,0,0,0,0,0,0.0325,0.0336,0.0355,0.0362,0.0369,0.0408,0.0389,0.0386,0.0392,0.0389,0.0381,0.0379,0.037,0.038,0.0381,0.0385,0.0369,0.0379,0.0379,0.0379,0.0414,0.0417,0.0419,0,0,0,0,0,0.0321,0.0359,0.0356,0.0364,0.0395,0.041,0.041,0.0404,0.0393,0.0397,0.039,0.038,0.038,0.0381,0.0382,0.0386,0.0379,0.0379,0.0379,0.0413,0.0416,0.0419,0,0,0,0,0,0,0.0326,0.036,0.0356,0.0402,0.0405,0.0406,0.0422,0.0409,0.0407,0.0405,0.0391,0.039,0.0395,0.0388,0.0389,0.0387,0.0374,0.0374,0.0399,0.0402,0.0404,0.0427,0.0369,0,0,0,0,0,0.0337,0.0372,0.0386,0.0418,0.0428,0.0422,0.0428,0.042,0.042,0.0417,0.0411,0.0402,0.0396,0.0398,0.0392,0.0404,0.0412,0.0402,0.0405,0.0407,0.0425,0.044,0.0446,0.0379,0.0379,0.0379,0,0,0.0346,0.0371,0.0389,0.0421,0.0426,0.0437,0.0423,0.0438,0.0435,0.042,0.0423,0.0415,0.0401,0.0405,0.0406,0.0401,0.0429,0.0407,0.0409,0.0426,0.0441,0.0447,0.0453,0.0379,0.0379,0.0379,0,0,0.0376,0.0406,0.0437,0.0445,0.0461,0.0458,0.0464,0.0466,0.0458,0.0463,0.0444,0.0445,0.0439,0.0431,0.0425,0.044,0.0439,0.0429,0.0465,0.0479,0.0486,0.0491,0.051,0.0517,0.0432,0.0432,0.0432,0,0.0383,0.0425,0.0444,0.0466,0.0476,0.0469,0.0483,0.0478,0.0476,0.0485,0.0468,0.0474,0.0452,0.0467,0.046,0.0447,0.046,0.0457,0.0485,0.049,0.0496,0.0513,0.0521,0.0434,0.0434,0.0434,0.0434,0,0.0428,0.0452,0.0474,0.0498,0.0508,0.0525,0.0521,0.0526,0.0518,0.0518,0.0535,0.0516,0.0531,0.0506,0.0485,0.0508,0.0507,0.0486,0.0483,0.0505,0.0521,0.0528,0.0437,0.0436,0.0435,0.0435,0,0,0.0476,0.0498,0.0505,0.0518,0.0526,0.0546,0.0547,0.0563,0.0603,0.0578,0.0635,0.0586,0.0601,0.0594,0.0573,0.0568,0.0596,0.0545,0.0545,0.0573,0.064,0.0591,0.0593,0.0585,0.0586,0.0587,0.0637,0,0.0502,0.054,0.0541,0.0572,0.0597,0.0588,0.0606,0.0616,0.0636,0.0694,0.0669,0.0717,0.0627,0.0664,0.0638,0.0627,0.0616,0.0585,0.0606,0.0607,0.0569,0.06,0.0527,0.0562,0.0644,0.0645,0.0646,0,0.056,0.0574,0.0601,0.0631,0.0644,0.0659,0.0717,0.0731,0.0788,0.0816,0.0846,0.0858,0.0864,0.0794,0.076,0.0749,0.0696,0.0662,0.0663,0.0614,0.0571,0.0551,0.0571,0.0406,0.0657,0.0656,0.0655,0,0.0615,0.0631,0.0654,0.066,0.0683,0.0703,0.0724,0.0776,0.0837,0.0924,0.1011,0.0999,0.1051,0.0969,0.0877,0.0838,0.0848,0.079,0.069,0.0686,0.0627,0.0615,0.0498,0.0762,0.0761,0.0761,0.0761,0,0.0675,0.0704,0.0684,0.0707,0.0762,0.0761,0.0857,0.0886,0.0987,0.1095,0.1094,0.1194,0.11,0.109,0.0958,0.0857,0.091,0.0714,0.07,0.0635,0.0624,0.0478,0.0405,0.0763,0.0763,0.0762,0.0762,0,0.0763,0.0741,0.0779,0.0785,0.0796,0.0847,0.0941,0.1029,0.1107,0.1262,0.1308,0.1377,0.1359,0.1242,0.1149,0.0992,0.0784,0.0824,0.0755,0.073,0.0453,0.0386,0.0308,0.0239,0.0731,0.073,0.0729,0,0.0822,0.0839,0.0842,0.0869,0.0879,0.0948,0.1015,0.109,0.1194,0.1365,0.1457,0.1514,0.155,0.1402,0.1156,0.0948,0.0783,0.0727,0.0615,0.0441,0.0357,0.0316,0.0261,0.0555,0.0553,0.0552,0.055,0,0.0927,0.0912,0.0931,0.0968,0.1024,0.1105,0.12,0.1294,0.1402,0.1525,0.1668,0.1715,0.1598,0.1379,0.1107,0.0925,0.0592,0.0684,0.0525,0.0231,0.0162,0.0088,0.0524,0.0535,0.0536,0.0538,0.0538,0.0539,0.1003,0.1026,0.1025,0.1068,0.114,0.1238,0.131,0.1422,0.1568,0.1721,0.1773,0.1833,0.1528,0.1155,0.0925,0.0436,0.0496,0.0248,0.0193,0.0177,0.0065,0.0468,0.0441,0.0442,0.0443,0.0444,0.0445,0,0.1057,0.1069,0.1122,0.1169,0.1257,0.128,0.1415,0.1484,0.1618,0.1756,0.1845,0.1692,0.13,0.091,0.0288,-0.0018,-0.0116,-0.018,-0.0275,-0.0299,0.0069,0.0008,-0.0139,-0.0139,-0.0139,-0.0138,-0.0138,-0.0138,0.1083,0.1116,0.1122,0.1242,0.1297,0.1401,0.1465,0.1565,0.1657,0.1744,0.1751,0.1763,0.142,0.0393,-0.0329,-0.0481,-0.0652,-0.0687,-0.0731,-0.0529,-0.0494,-0.0461,-0.0537,-0.0797,-0.0797,-0.1105,-0.1108,-0.1111]}],[{"header":{"parameterUnit":"m.s-1","parameterCategory":2,"la1":30.2991,"la2":30.254,"lo1":-89.0895,"lo2":-89.0444,"dy":0.0017,"dx":0.0017,"nx":28,"ny":28,"refTime":"2024-05-20T09:00:00:Z","depth":"2","parameterNumber":2,"parameterNumberName":"U-component_of_CURRENTS"},"data":[0,0,0,0,0,0,0,0,0,0,0,0,0,0,0,0,0,0,0,0,0,0,0,0,0,0,0,0,0,0,0,0,0,0,0,0,0,0,0,0,0,0,0,0,0,0,0,0,0,0,0,0,0,0,0,0,0,0,0.1662,0.1661,0,0.164,0.164,0.164,0.1562,0.156,0.1559,0.1557,0.1568,0.157,0.1572,0,0,0,0,0,0,0,0,0,0,0,0,0,0.1634,0.1635,0.1662,0.1661,0.1661,0.164,0.164,0.164,0.1563,0.156,0.1558,0.1556,0.1568,0.157,0.1572,0,0,0,0,0,0,0,0,0,0,0,0,0,0.1634,0.1635,0.1662,0.1619,0.1615,0.164,0.164,0.164,0.1563,0.156,0.1557,0.1555,0.1567,0.157,0.1573,0.1648,0,0,0.1582,0.1583,0,0,0,0,0,0,0,0,0.1634,0.1635,0.1626,0.1622,0.1617,0.16,0.1634,0.1644,0.1564,0.1584,0.1557,0.1554,0.1584,0.1585,0.1588,0.1648,0.1649,0.1582,0.1584,0.1586,0.1586,0,0,0,0,0,0,0,0.1634,0.1635,0.1654,0.1626,0.1621,0.16,0.1597,0.1636,0.1601,0.1582,0.1576,0.1573,0.1581,0.1585,0.1588,0.1649,0.1582,0.1585,0.1587,0.1588,0.1718,0.172,0,0,0,0,0,0,0.1638,0.1636,0.1655,0.1653,0.1618,0.1603,0.16,0.1609,0.16,0.1595,0.1575,0.1569,0.1582,0.1584,0.1588,0.1637,0.1586,0.1588,0.159,0.1717,0.1718,0.172,0,0,0,0,0,0,0.1638,0.1641,0.1656,0.1642,0.1642,0.1606,0.1618,0.161,0.16,0.1594,0.1589,0.1571,0.1579,0.1584,0.1622,0.1638,0.159,0.1593,0.1715,0.1717,0.1719,0.176,0,0,0,0,0,0,0.1637,0.1641,0.1654,0.1643,0.1643,0.1674,0.162,0.1612,0.1603,0.1595,0.159,0.1588,0.1578,0.1617,0.1625,0.1641,0.1595,0.1713,0.1716,0.1719,0.1757,0.1763,0.1769,0,0,0,0,0,0.1637,0.1663,0.1655,0.1657,0.1662,0.1675,0.1675,0.1639,0.1606,0.1617,0.1611,0.1587,0.164,0.1622,0.163,0.1648,0.1711,0.1715,0.1718,0.1754,0.1762,0.1769,0,0,0,0,0,0,0.1659,0.1658,0.1648,0.1673,0.1676,0.1662,0.1672,0.1647,0.1651,0.1641,0.1623,0.1624,0.1662,0.166,0.164,0.1694,0.1668,0.1673,0.1692,0.17,0.1706,0.1737,0.1598,0,0,0,0,0,0.1674,0.1687,0.1688,0.1707,0.1716,0.1697,0.1698,0.1675,0.1674,0.167,0.1664,0.1667,0.1691,0.1696,0.1719,0.1762,0.1794,0.1775,0.1781,0.1786,0.1818,0.1923,0.1942,0.1732,0.1732,0.1732,0,0,0.1684,0.1687,0.1692,0.1712,0.1713,0.1734,0.1691,0.1698,0.1705,0.1678,0.1695,0.1701,0.1711,0.1748,0.1763,0.1742,0.1851,0.1791,0.1795,0.1825,0.1929,0.195,0.1968,0.1735,0.1734,0.1734,0,0,0.1712,0.1724,0.1745,0.1756,0.1764,0.1761,0.1765,0.1759,0.1748,0.1775,0.1754,0.178,0.18,0.1815,0.1824,0.189,0.1891,0.1877,0.1928,0.2028,0.2047,0.2064,0.2081,0.2099,0.187,0.187,0.187,0,0.172,0.1754,0.1754,0.1781,0.1792,0.1776,0.1802,0.1806,0.1805,0.182,0.1784,0.1847,0.184,0.1906,0.1909,0.1907,0.194,0.1891,0.2039,0.2057,0.2074,0.2087,0.2107,0.1873,0.1873,0.1872,0.1872,0,0.1767,0.1793,0.1813,0.184,0.1855,0.1879,0.1884,0.1899,0.1883,0.1886,0.1942,0.1949,0.1989,0.1976,0.1958,0.2064,0.2037,0.2042,0.202,0.2098,0.2105,0.2125,0.1876,0.1875,0.1875,0.1874,0,0,0.1776,0.1833,0.1837,0.1853,0.1887,0.1896,0.1938,0.1975,0.2001,0.2013,0.207,0.2095,0.2104,0.2118,0.2105,0.2169,0.2276,0.2151,0.2155,0.2168,0.2453,0.2311,0.2318,0.2317,0.2322,0.2326,0.2391,0,0.181,0.1868,0.1887,0.193,0.196,0.1972,0.2009,0.2036,0.2058,0.2114,0.2147,0.2196,0.2156,0.2174,0.2245,0.2281,0.2341,0.2255,0.2377,0.238,0.2247,0.2342,0.2147,0.218,0.241,0.2414,0.2416,0,0.1846,0.1879,0.1933,0.1973,0.1988,0.2007,0.2063,0.2094,0.2178,0.2202,0.228,0.2307,0.24,0.2359,0.2493,0.2442,0.2464,0.248,0.2484,0.2364,0.2278,0.2152,0.2208,0.245,0.2447,0.2444,0.2442,0,0.1844,0.1903,0.1944,0.1959,0.2012,0.203,0.2055,0.212,0.2168,0.2271,0.2331,0.2438,0.2504,0.2584,0.2597,0.2571,0.2734,0.2702,0.2593,0.258,0.2445,0.2412,0.2834,0.2834,0.2834,0.2833,0.2833,0,0.1872,0.1895,0.1941,0.1958,0.1995,0.2026,0.2084,0.2122,0.2226,0.2305,0.238,0.2469,0.2577,0.2663,0.2667,0.2681,0.2799,0.2632,0.2617,0.2443,0.241,0.2677,0.2658,0.2836,0.2835,0.2835,0.2834,0,0.1857,0.1901,0.1931,0.1979,0.1994,0.201,0.209,0.214,0.2233,0.235,0.2396,0.2542,0.264,0.2698,0.2815,0.2753,0.278,0.2753,0.2489,0.2442,0.2531,0.2514,0.2653,0.2649,0.2646,0.2643,0.2641,0,0.1859,0.1879,0.1921,0.194,0.1957,0.2001,0.2039,0.2129,0.2187,0.2378,0.2431,0.2583,0.2615,0.2695,0.2667,0.2645,0.2742,0.2437,0.2358,0.2557,0.2529,0.2516,0.2503,0.2174,0.2168,0.2164,0.216,0,0.185,0.1859,0.1887,0.1921,0.195,0.1989,0.2044,0.2096,0.2218,0.2312,0.2433,0.2472,0.2533,0.2423,0.2383,0.235,0.2417,0.2333,0.269,0.223,0.2107,0.2077,0.2081,0.2117,0.2121,0.2124,0.2127,0.2128,0.1835,0.1835,0.1873,0.1897,0.1929,0.1952,0.1975,0.2034,0.211,0.2155,0.2265,0.2216,0.2226,0.2044,0.2001,0.2003,0.215,0.2055,0.2071,0.2092,0.2005,0.1882,0.1829,0.1831,0.1833,0.1835,0.1837,0,0.1821,0.1824,0.1848,0.1875,0.1891,0.1919,0.1965,0.1936,0.1966,0.1964,0.1953,0.1727,0.1616,0.1686,0.16,0.1568,0.1571,0.1532,0.1537,0.158,0.1618,0.1508,0.12,0.1198,0.1196,0.1195,0,0,0.1825,0.1826,0.1825,0.1834,0.1849,0.1848,0.1857,0.1776,0.1743,0.1572,0.1498,0.1444,0.1572,0.1332,0.132,0.1265,0.1415,0.1217,0.1728,0.1774,0.181,0.1915,0.1793,0,0,0,0,0]},{"header":{"parameterUnit":"m.s-1","parameterCategory":2,"la1":30.2991,"la2":30.254,"lo1":-89.0895,"lo2":-89.0444,"dy":0.0017,"dx":0.0017,"nx":28,"ny":28,"refTime":"2024-05-20T09:00:00:Z","depth":"2","parameterNumber":3,"parameterNumberName":"V-component_of_CURRENTS"},"data":[0,0,0,0,0,0,0,0,0,0,0,0,0,0,0,0,0,0,0,0,0,0,0,0,0,0,0,0,0,0,0,0,0,0,0,0,0,0,0,0,0,0,0,0,0,0,0,0,0,0,0,0,0,0,0,0,0,0,0.01,0.01,0,0.0088,0.0087,0.0087,0.0117,0.0118,0.0119,0.012,0.0134,0.0133,0.0132,0,0,0,0,0,0,0,0,0,0,0,0,0,0.0038,0.004,0.01,0.01,0.01,0.0088,0.0087,0.0087,0.0116,0.0118,0.0119,0.012,0.0134,0.0133,0.0132,0,0,0,0,0,0,0,0,0,0,0,0,0,0.0048,0.004,0.01,0.0114,0.0116,0.0088,0.0087,0.0087,0.0116,0.0118,0.0119,0.0121,0.0134,0.0133,0.0132,0.0093,0,0,0.0129,0.0129,0,0,0,0,0,0,0,0,0.0047,0.005,0.0112,0.0113,0.0115,0.0107,0.0071,0.0091,0.0116,0.0114,0.012,0.0122,0.0127,0.0127,0.0118,0.0093,0.0094,0.0129,0.0128,0.0128,0.0128,0,0,0,0,0,0,0,0.0047,0.005,0.0093,0.0112,0.0114,0.0084,0.0088,0.0074,0.011,0.0114,0.0117,0.0118,0.0128,0.0118,0.0118,0.0094,0.0129,0.0128,0.0127,0.0127,0.0114,0.0114,0,0,0,0,0,0,0.0056,0.005,0.0093,0.0093,0.0087,0.0084,0.0089,0.0106,0.011,0.0112,0.0117,0.0119,0.0119,0.0119,0.0119,0.0143,0.0128,0.0127,0.0126,0.0114,0.0114,0.0114,0,0,0,0,0,0,0.0055,0.0061,0.0094,0.0071,0.0074,0.0085,0.0103,0.0105,0.0112,0.0112,0.0115,0.0124,0.0121,0.012,0.0124,0.0141,0.0126,0.0126,0.0114,0.0114,0.0114,0.0146,0,0,0,0,0,0,0.0054,0.0061,0.0078,0.0073,0.0076,0.0096,0.0102,0.0104,0.011,0.0114,0.0119,0.0121,0.0122,0.0126,0.0123,0.014,0.0125,0.0113,0.0114,0.0114,0.0144,0.0147,0.0149,0,0,0,0,0,0.0052,0.0067,0.0079,0.0084,0.0099,0.0096,0.0095,0.0105,0.0109,0.0116,0.0119,0.0122,0.0128,0.0125,0.0122,0.0138,0.0113,0.0114,0.0114,0.0143,0.0146,0.0149,0,0,0,0,0,0,0.0054,0.0071,0.0085,0.0107,0.0112,0.0103,0.0097,0.0107,0.0111,0.0119,0.0116,0.0118,0.0128,0.0123,0.012,0.0136,0.0123,0.0123,0.0146,0.0149,0.0152,0.0166,0.0124,0,0,0,0,0,0.0061,0.0089,0.0087,0.0116,0.0099,0.0098,0.0097,0.0115,0.0115,0.0119,0.0125,0.0127,0.0122,0.013,0.0125,0.0128,0.0104,0.0138,0.0141,0.0143,0.0152,0.0165,0.017,0.0116,0.0116,0.0116,0,0,0.0071,0.0089,0.0104,0.012,0.0107,0.0096,0.0101,0.0109,0.0128,0.0118,0.0136,0.0132,0.0122,0.0131,0.0136,0.0136,0.0129,0.0144,0.0146,0.0154,0.0166,0.0172,0.0176,0.0117,0.0117,0.0117,0,0,0.0097,0.0108,0.0124,0.0125,0.013,0.0113,0.0117,0.0116,0.0136,0.0149,0.0148,0.015,0.015,0.015,0.0145,0.0153,0.0137,0.0163,0.0196,0.0208,0.0213,0.0217,0.0124,0.012,0.0173,0.0173,0.0173,0,0.0111,0.0137,0.0128,0.0137,0.0139,0.0117,0.0122,0.0123,0.0145,0.017,0.0165,0.0169,0.0154,0.0165,0.0172,0.0159,0.0142,0.0185,0.0213,0.0217,0.0221,0.0125,0.012,0.0174,0.0174,0.0174,0.0174,0,0.0138,0.0159,0.0155,0.0159,0.0157,0.016,0.015,0.0168,0.0174,0.0192,0.022,0.0197,0.0211,0.02,0.0187,0.0213,0.0178,0.0209,0.0208,0.0229,0.0124,0.0118,0.0177,0.0176,0.0176,0.0175,0,0,0.0179,0.0173,0.0181,0.0195,0.0176,0.0185,0.019,0.0201,0.024,0.0243,0.0293,0.0259,0.0269,0.0264,0.0252,0.0256,0.0227,0.0257,0.0257,0.0165,0.0193,0.0106,0.009,0.0292,0.0293,0.0293,0.0083,0,0.0202,0.0226,0.022,0.0243,0.0235,0.0229,0.0248,0.0275,0.0286,0.0329,0.0311,0.0337,0.0287,0.0309,0.0302,0.0276,0.0227,0.0276,0.0186,0.018,0.0105,0.0088,0.016,-0.0022,0.0078,0.0077,0.0076,0,0.0233,0.0248,0.027,0.0305,0.0301,0.0319,0.0359,0.038,0.0413,0.0444,0.0454,0.0442,0.0425,0.0396,0.0314,0.0363,0.027,0.0221,0.0213,0.0127,0.0086,-0.0012,-0.0036,0.0066,0.0067,0.0068,0.0068,0,0.0275,0.0294,0.0319,0.0328,0.0344,0.0383,0.039,0.0427,0.0464,0.0517,0.0555,0.0533,0.0535,0.0456,0.0295,0.0342,0.0179,0.023,0.0026,0.0014,0.0052,0.0044,0.0144,0.0144,0.0145,0.0145,0.0146,0,0.0307,0.0343,0.035,0.0372,0.0431,0.0437,0.0512,0.0535,0.0577,0.0617,0.062,0.0612,0.057,0.0453,0.0315,0.0116,0.0173,0.0011,-0.0025,0.0053,0.0048,0.0132,0.0134,0.0137,0.0139,0.0141,0.0142,0,0.0366,0.036,0.0407,0.0438,0.0452,0.0506,0.056,0.0618,0.0657,0.0706,0.0722,0.0689,0.0549,0.0397,0.0237,0.0132,-0.0048,-0.0159,-0.013,-0.0157,-0.0232,-0.0226,-0.0341,-0.0346,-0.035,-0.0353,-0.0355,0,0.0401,0.0416,0.046,0.0488,0.0509,0.0576,0.0624,0.0661,0.0699,0.0706,0.0718,0.0613,0.0499,0.0195,0.0034,-0.0234,-0.0246,-0.0352,-0.0235,-0.0248,-0.0272,-0.026,-0.025,-0.0216,-0.0217,-0.0218,-0.0219,0,0.0451,0.0465,0.0484,0.0532,0.0585,0.0654,0.0703,0.0719,0.075,0.0746,0.065,0.0548,0.0342,0.0134,-0.0166,-0.0325,-0.0275,-0.0382,-0.0371,-0.0099,-0.0144,-0.0163,-0.0153,-0.0228,-0.0227,-0.0226,-0.0226,-0.0226,0.0472,0.0496,0.05,0.0537,0.0629,0.0684,0.0687,0.0694,0.0668,0.0639,0.0577,0.0477,0.0343,-0.0011,-0.025,-0.0421,-0.041,-0.0432,-0.0422,-0.0412,-0.0355,-0.0402,-0.0532,-0.0532,-0.0533,-0.0534,-0.0534,0,0.0425,0.0456,0.0498,0.0516,0.0557,0.0663,0.0708,0.0661,0.0556,0.0612,0.0525,0.0379,0.0177,-0.0002,-0.0234,-0.0414,-0.0353,-0.0483,-0.0329,-0.0321,-0.0313,-0.0243,-0.0395,-0.0395,-0.0395,-0.0395,0,0,0.0387,0.0368,0.0364,0.0381,0.046,0.051,0.0525,0.048,0.0498,0.0456,0.0479,0.0503,0.0277,0.0137,-0.0095,-0.0234,-0.0234,-0.0267,-0.036,-0.0142,-0.0132,-0.0271,-0.0153,0,0,0,0,0]}],[{"header":{"parameterUnit":"m.s-1","parameterCategory":2,"la1":30.2991,"la2":30.254,"lo1":-89.0895,"lo2":-89.0444,"dy":0.0017,"dx":0.0017,"nx":28,"ny":28,"refTime":"2024-05-20T09:00:00:Z","depth":"4","parameterNumber":2,"parameterNumberName":"U-component_of_CURRENTS"},"data":[0,0,0,0,0,0,0,0,0,0,0,0,0,0,0,0,0,0,0,0,0,0,0,0,0,0,0,0,0,0,0,0,0,0,0,0,0,0,0,0,0,0,0,0,0,0,0,0,0,0,0,0,0,0,0,0,0,0,0.0784,0.0784,0,0.0808,0.0808,0.0808,0.0835,0.0836,0.0837,0.0838,0.0859,0.0859,0.0859,0,0,0,0,0,0,0,0,0,0,0,0,0,0.0752,0.0752,0.0784,0.0784,0.0785,0.0808,0.0808,0.0808,0.0835,0.0836,0.0837,0.0838,0.0859,0.0859,0.0859,0,0,0,0,0,0,0,0,0,0,0,0,0,0.0766,0.0752,0.0784,0.0805,0.0807,0.0808,0.0808,0.0808,0.0835,0.0836,0.0838,0.0839,0.086,0.0859,0.0859,0.0833,0,0,0.0858,0.0858,0,0,0,0,0,0,0,0,0.0765,0.0767,0.0801,0.0803,0.0806,0.0824,0.0805,0.0817,0.0835,0.082,0.0838,0.0839,0.0849,0.085,0.0846,0.0834,0.0835,0.0858,0.0858,0.0858,0.0858,0,0,0,0,0,0,0,0.0764,0.0766,0.0789,0.0802,0.0805,0.081,0.0813,0.0807,0.0824,0.0822,0.0825,0.0834,0.085,0.0846,0.0846,0.0835,0.0858,0.0858,0.0858,0.0858,0.0874,0.0875,0,0,0,0,0,0,0.0769,0.0765,0.0788,0.079,0.0793,0.081,0.0813,0.0813,0.0824,0.0829,0.0832,0.0835,0.0846,0.0847,0.0847,0.09,0.0858,0.0858,0.0858,0.0874,0.0875,0.0875,0,0,0,0,0,0,0.0768,0.077,0.0787,0.0782,0.0785,0.081,0.081,0.0813,0.084,0.0834,0.0837,0.086,0.0847,0.0848,0.0856,0.0898,0.0858,0.0857,0.0873,0.0874,0.0875,0.0952,0,0,0,0,0,0,0.0767,0.0769,0.0779,0.0782,0.0786,0.0803,0.0809,0.0813,0.0844,0.0848,0.0858,0.0859,0.0848,0.0856,0.0855,0.0897,0.0857,0.0872,0.0874,0.0875,0.0949,0.0955,0.0961,0,0,0,0,0,0.0765,0.0772,0.0778,0.0782,0.0795,0.0804,0.0806,0.0825,0.0845,0.0854,0.0858,0.0861,0.0864,0.0856,0.0855,0.0898,0.0872,0.0873,0.0875,0.0946,0.0954,0.0961,0,0,0,0,0,0,0.0769,0.0776,0.0783,0.0794,0.0807,0.0811,0.083,0.0841,0.0852,0.0864,0.0859,0.0859,0.0892,0.0871,0.0863,0.0903,0.0872,0.0873,0.0927,0.0934,0.094,0.0962,0.0857,0,0,0,0,0,0.0772,0.0779,0.0787,0.08,0.0811,0.0826,0.0838,0.0849,0.0857,0.0865,0.0873,0.0878,0.089,0.0894,0.0896,0.0905,0.0892,0.0933,0.094,0.0945,0.0961,0.0973,0.0983,0.088,0.088,0.088,0,0,0.0782,0.0785,0.0793,0.0802,0.0818,0.0824,0.0836,0.0862,0.088,0.0863,0.0898,0.0907,0.0898,0.092,0.0932,0.0911,0.0962,0.0947,0.0952,0.0965,0.0976,0.0986,0.0995,0.0881,0.0881,0.088,0,0,0.0793,0.0807,0.0814,0.0822,0.0845,0.0846,0.0861,0.0879,0.0909,0.0928,0.0935,0.0963,0.0967,0.0975,0.0978,0.1015,0.1002,0.1023,0.1067,0.1079,0.1089,0.1096,0.1072,0.1077,0.1017,0.1017,0.1018,0,0.0805,0.0808,0.0821,0.0826,0.0841,0.0859,0.0871,0.0893,0.0914,0.0942,0.0951,0.0992,0.0996,0.1027,0.1052,0.1035,0.1025,0.1043,0.109,0.1098,0.1104,0.1077,0.1082,0.1021,0.1021,0.102,0.102,0,0.0811,0.0821,0.0832,0.0838,0.0854,0.087,0.0897,0.0924,0.0962,0.0986,0.1049,0.1058,0.1088,0.1097,0.1093,0.1148,0.1119,0.1105,0.1076,0.112,0.1087,0.1091,0.1027,0.1025,0.1024,0.1023,0,0,0.081,0.083,0.0836,0.0847,0.0864,0.0877,0.0913,0.0951,0.1001,0.1035,0.1088,0.1138,0.1173,0.1179,0.1186,0.12,0.1244,0.1185,0.1184,0.117,0.125,0.1196,0.1194,0.1245,0.1247,0.1248,0.1201,0,0.0813,0.0826,0.0837,0.0857,0.0867,0.0895,0.0935,0.0977,0.1029,0.108,0.1119,0.1179,0.1196,0.1233,0.1255,0.1246,0.1261,0.1256,0.1202,0.12,0.1155,0.12,0.1253,0.1203,0.1204,0.1205,0.1205,0,0.0802,0.0816,0.0838,0.0879,0.0893,0.0911,0.0984,0.1026,0.1097,0.1148,0.1208,0.124,0.1286,0.1292,0.1313,0.1312,0.1307,0.1288,0.1286,0.1216,0.1154,0.1154,0.1211,0.1211,0.121,0.121,0.121,0,0.0783,0.0814,0.0836,0.0845,0.0893,0.0928,0.097,0.1051,0.1104,0.1199,0.1229,0.1297,0.1322,0.1338,0.1335,0.1334,0.1326,0.1306,0.1243,0.1237,0.1264,0.1257,0.1333,0.1333,0.1334,0.1334,0.1334,0,0.076,0.0774,0.0835,0.0843,0.0894,0.0943,0.1017,0.1077,0.1157,0.1199,0.1278,0.1295,0.1343,0.134,0.1338,0.1299,0.1333,0.1265,0.1236,0.1292,0.1288,0.1265,0.1258,0.1332,0.1332,0.1333,0.1333,0,0.0709,0.0749,0.0769,0.0842,0.0878,0.0916,0.1016,0.1053,0.1161,0.1204,0.1233,0.1292,0.1306,0.1323,0.1325,0.1288,0.1263,0.1243,0.1287,0.1257,0.1157,0.1155,0.116,0.1158,0.1156,0.1155,0.1154,0,0.0677,0.0684,0.0761,0.0781,0.0812,0.0886,0.0924,0.1041,0.1076,0.1177,0.1166,0.1222,0.1252,0.1189,0.1233,0.1223,0.1221,0.1187,0.1205,0.1177,0.1147,0.1147,0.1146,0.1151,0.115,0.115,0.115,0,0.0609,0.0643,0.0667,0.0717,0.0753,0.0792,0.0864,0.0881,0.0995,0.1085,0.1097,0.1117,0.112,0.1136,0.1152,0.114,0.1199,0.117,0.1173,0.119,0.1166,0.1138,0.1139,0.1144,0.1145,0.1145,0.1145,0,0.0562,0.0561,0.0608,0.064,0.068,0.069,0.0736,0.0777,0.0838,0.0966,0.0952,0.1017,0.1088,0.109,0.1088,0.1098,0.109,0.1051,0.106,0.1067,0.1068,0.1026,0.0947,0,0,0,0,0,0.0522,0.0521,0.0532,0.0567,0.0593,0.0634,0.0689,0.0733,0.0835,0.082,0.0906,0.092,0.0953,0.0979,0.0975,0.1045,0.1084,0.1033,0.104,0.1111,0.1118,0.1132,0,0,0,0,0,0,0.0499,0.051,0.051,0.0499,0.0514,0.0543,0.0573,0.0631,0.0651,0.0758,0.0779,0.0878,0.0919,0.0962,0.0965,0.0978,0.0965,0.1095,0.1093,0.1108,0.1114,0.1119,0.1136,0,0,0,0,0]},{"header":{"parameterUnit":"m.s-1","parameterCategory":2,"la1":30.2991,"la2":30.254,"lo1":-89.0895,"lo2":-89.0444,"dy":0.0017,"dx":0.0017,"nx":28,"ny":28,"refTime":"2024-05-20T09:00:00:Z","depth":"4","parameterNumber":3,"parameterNumberName":"V-component_of_CURRENTS"},"data":[0,0,0,0,0,0,0,0,0,0,0,0,0,0,0,0,0,0,0,0,0,0,0,0,0,0,0,0,0,0,0,0,0,0,0,0,0,0,0,0,0,0,0,0,0,0,0,0,0,0,0,0,0,0,0,0,0,0,-0.0341,-0.0342,0,-0.0387,-0.0388,-0.0388,-0.0409,-0.041,-0.041,-0.041,-0.0448,-0.0449,-0.045,0,0,0,0,0,0,0,0,0,0,0,0,0,-0.0269,-0.027,-0.0341,-0.0342,-0.0343,-0.0387,-0.0388,-0.0388,-0.0409,-0.041,-0.041,-0.041,-0.0448,-0.0449,-0.045,0,0,0,0,0,0,0,0,0,0,0,0,0,-0.0303,-0.027,-0.0341,-0.0361,-0.0364,-0.0387,-0.0388,-0.0388,-0.0409,-0.041,-0.041,-0.041,-0.0447,-0.0449,-0.045,-0.0449,0,0,-0.0453,-0.0454,0,0,0,0,0,0,0,0,-0.0301,-0.0305,-0.0357,-0.036,-0.0363,-0.0396,-0.0377,-0.0409,-0.0409,-0.0388,-0.041,-0.0411,-0.0432,-0.0434,-0.0437,-0.0451,-0.0452,-0.0453,-0.0454,-0.0455,-0.0455,0,0,0,0,0,0,0,-0.0299,-0.0304,-0.0356,-0.0358,-0.0362,-0.0368,-0.0373,-0.0383,-0.0405,-0.039,-0.0393,-0.0403,-0.0433,-0.0436,-0.0439,-0.0453,-0.0453,-0.0454,-0.0455,-0.0456,-0.0453,-0.0452,0,0,0,0,0,0,-0.03,-0.0301,-0.0355,-0.0358,-0.0336,-0.0369,-0.0374,-0.0382,-0.0405,-0.041,-0.0403,-0.0404,-0.0434,-0.0437,-0.044,-0.0434,-0.0455,-0.0456,-0.0456,-0.0453,-0.0453,-0.0452,0,0,0,0,0,0,-0.0298,-0.0304,-0.0353,-0.0333,-0.0341,-0.037,-0.0379,-0.0383,-0.0401,-0.0415,-0.0419,-0.0419,-0.0435,-0.0438,-0.044,-0.0436,-0.0456,-0.0457,-0.0454,-0.0453,-0.0452,-0.0426,0,0,0,0,0,0,-0.0295,-0.0303,-0.0309,-0.0333,-0.0342,-0.0366,-0.0379,-0.0384,-0.0408,-0.041,-0.043,-0.0433,-0.0435,-0.0439,-0.0442,-0.0438,-0.0458,-0.0455,-0.0454,-0.0452,-0.0428,-0.0424,-0.0421,0,0,0,0,0,-0.0293,-0.0306,-0.0308,-0.0315,-0.0349,-0.0366,-0.037,-0.039,-0.0408,-0.041,-0.0416,-0.0433,-0.0432,-0.0439,-0.0443,-0.0439,-0.0456,-0.0454,-0.0453,-0.0429,-0.0425,-0.0421,0,0,0,0,0,0,-0.0282,-0.031,-0.0314,-0.0335,-0.0347,-0.0371,-0.0387,-0.0398,-0.0407,-0.0414,-0.0425,-0.0427,-0.0435,-0.0435,-0.0443,-0.0432,-0.0446,-0.0445,-0.0427,-0.0423,-0.042,-0.0437,-0.0459,0,0,0,0,0,-0.0281,-0.0297,-0.0316,-0.0334,-0.0344,-0.0366,-0.0379,-0.0389,-0.0402,-0.0408,-0.0416,-0.0422,-0.0428,-0.0424,-0.0434,-0.0423,-0.0451,-0.0422,-0.0418,-0.0415,-0.043,-0.0476,-0.0479,-0.0446,-0.0446,-0.0446,0,0,-0.0285,-0.0302,-0.0312,-0.0332,-0.035,-0.0343,-0.0375,-0.0398,-0.0386,-0.0411,-0.0403,-0.0423,-0.0427,-0.0418,-0.0419,-0.0416,-0.0431,-0.0413,-0.0411,-0.0428,-0.0475,-0.0478,-0.0482,-0.0445,-0.0445,-0.0445,0,0,-0.0288,-0.0314,-0.0319,-0.0323,-0.0344,-0.0348,-0.0356,-0.0376,-0.0383,-0.0378,-0.0395,-0.0409,-0.0406,-0.0407,-0.0407,-0.039,-0.0424,-0.0389,-0.0372,-0.0415,-0.0419,-0.0423,-0.0432,-0.0437,-0.0371,-0.0371,-0.0371,0,-0.029,-0.0293,-0.0323,-0.0317,-0.0319,-0.0347,-0.0337,-0.0341,-0.0352,-0.0365,-0.0371,-0.0398,-0.0402,-0.0402,-0.0388,-0.0386,-0.0408,-0.0387,-0.0413,-0.0418,-0.0423,-0.0431,-0.0437,-0.0369,-0.037,-0.037,-0.037,0,-0.028,-0.028,-0.029,-0.0281,-0.0283,-0.0289,-0.0291,-0.0295,-0.0312,-0.0324,-0.0352,-0.0363,-0.0385,-0.0376,-0.0374,-0.0399,-0.0402,-0.0419,-0.0429,-0.0425,-0.0433,-0.044,-0.0367,-0.0368,-0.0368,-0.0369,0,0,-0.0289,-0.0283,-0.0283,-0.0272,-0.0267,-0.0271,-0.0253,-0.0259,-0.0276,-0.0287,-0.0312,-0.0318,-0.0363,-0.0367,-0.0377,-0.0396,-0.0428,-0.0414,-0.0417,-0.0431,-0.0507,-0.0443,-0.0444,-0.0458,-0.0459,-0.0461,-0.0489,0,-0.0271,-0.0252,-0.0247,-0.0221,-0.0215,-0.0221,-0.021,-0.0219,-0.0242,-0.0269,-0.0304,-0.0336,-0.0346,-0.0369,-0.0394,-0.0432,-0.0451,-0.0418,-0.0503,-0.0505,-0.0457,-0.0452,-0.0466,-0.0495,-0.0496,-0.0498,-0.0498,0,-0.0256,-0.0246,-0.0222,-0.0207,-0.0208,-0.0192,-0.0204,-0.0197,-0.0235,-0.0264,-0.0309,-0.0349,-0.038,-0.0398,-0.0466,-0.0448,-0.0482,-0.0504,-0.0506,-0.0469,-0.0455,-0.0507,-0.0511,-0.051,-0.0509,-0.0508,-0.0508,0,-0.0258,-0.0228,-0.0212,-0.0204,-0.0189,-0.0187,-0.0182,-0.0209,-0.0216,-0.0273,-0.0294,-0.0361,-0.0385,-0.0454,-0.0481,-0.0494,-0.0549,-0.0574,-0.0544,-0.0539,-0.0602,-0.0598,-0.0639,-0.0639,-0.0639,-0.0639,-0.0639,0,-0.0244,-0.0235,-0.0217,-0.0211,-0.0203,-0.0194,-0.0204,-0.0217,-0.024,-0.0239,-0.0304,-0.0309,-0.0406,-0.0436,-0.0488,-0.0515,-0.0558,-0.0548,-0.055,-0.0583,-0.0577,-0.0605,-0.0601,-0.064,-0.064,-0.0639,-0.0639,0,-0.0254,-0.0242,-0.0226,-0.021,-0.0208,-0.0207,-0.0197,-0.0198,-0.0229,-0.0225,-0.0238,-0.028,-0.0314,-0.0381,-0.0467,-0.0499,-0.0548,-0.0547,-0.0543,-0.0544,-0.0513,-0.0507,-0.0549,-0.0547,-0.0546,-0.0544,-0.0543,0,-0.0254,-0.0249,-0.0232,-0.0217,-0.0209,-0.0204,-0.0192,-0.0202,-0.0186,-0.0182,-0.0164,-0.02,-0.0226,-0.0278,-0.0375,-0.047,-0.048,-0.0514,-0.0555,-0.051,-0.0509,-0.0505,-0.0501,-0.0541,-0.054,-0.054,-0.0539,0,-0.0247,-0.0251,-0.0236,-0.0206,-0.0186,-0.0162,-0.0137,-0.0118,-0.0101,-0.0135,-0.0079,-0.0117,-0.0142,-0.0226,-0.0286,-0.036,-0.0506,-0.0499,-0.0504,-0.0543,-0.05,-0.05,-0.0498,-0.0534,-0.0535,-0.0535,-0.0536,0,-0.0239,-0.0228,-0.02,-0.0169,-0.0143,-0.0089,-0.0095,-0.0039,-0.0025,-0.0009,0.0016,-0.0027,-0.0073,-0.0165,-0.0221,-0.0286,-0.0329,-0.037,-0.0383,-0.0391,-0.0339,-0.0261,-0.0226,0,0,0,0,0,-0.0206,-0.0174,-0.015,-0.01,-0.0075,-0.0059,-0.0026,-0.0026,-0.0009,0.0052,0.004,0.0028,-0.0047,-0.0095,-0.0147,-0.0226,-0.0362,-0.0293,-0.0421,-0.0504,-0.051,-0.0471,0,0,0,0,0,0,-0.0172,-0.0147,-0.0131,-0.0037,-0.0,0.0041,0.0061,0.0064,0.0095,0.0095,0.0061,0.0014,-0.0066,-0.0003,-0.0143,-0.017,-0.0259,-0.0347,-0.0348,-0.05,-0.0506,-0.0511,-0.0473,0,0,0,0,0]}]]